Location: Brachbach
(49.1847°N, 9.7240°E)
Time: 10:19:58
(UTC+00:00)

Cosmos 2322 Rocket - Pass Details

Date: 23 May 2024
Orbit: 832 x 850 km, 71.0° (Epoch: 15 June)

Event Time Altitude Azimuth Distance (km) Brightness Sun altitude
Rises 02:35:29 0° 323° (NW) 3,402 5.5 -7.5°
Reaches altitude 10° 02:38:16 10° 312° (NW) 2,466 4.6 -7.2°
Maximum altitude 02:42:54 27° 257° (WSW) 1,571 3.2 -6.7°
Drops below altitude 10° 02:47:33 10° 201° (SSW) 2,461 4.1 -6.1°
Sets 02:50:19 0° 189° (S) 3,394 4.9 -5.7°
